{"data":{"norad_id":41729,"epoch":"2026-09-19T08:37:10.897824Z","epoch_age_seconds":124242,"freshness":"FRESH","line1":"1 41729U 16050A   26262.35915391 -.00000255  00000+0  00000+0 0  9990","line2":"2 41729   0.0177 169.1246 0000887 350.8663 111.5445  1.00273039 37010","mean_motion":1.00273039,"eccentricity":8.87e-5,"inclination_deg":0.0177,"raan_deg":169.1246,"arg_perigee_deg":350.8663,"mean_anomaly_deg":111.5445,"bstar":0,"rev_number":3701,"period_min":1436.078944411,"perigee_km":35782.503442589,"apogee_km":35789.983403676,"semimajor_km":42164.380423133,"source":"CELESTRAK","updated_at":"2026-09-20T09:00:35.226737Z"}}